EWG48K LFMN-EDDH

Flight info

Callsign EWG48K
Flight time 1h 41m
Altitude 38000
Route IRMAR DCT KINES DCT VANAS DCT MOBLO DCT UBIMA DCT GILIR DCT PENDU DCT UZCUX DCT SOSAD DCT OBOKA/N0438F370 DCT BASUM/N0442F380 Y850 PIXUR/N0438F370 Y850 MUBZI M105 RIBSO RIBSO7A
Aircraft A319/M-SDE3FGHIRWY/LB1

Departure

Time 2026-05-05 12:17
Airport Nice-Côte d'Azur Airport (LFMN)

Arrival

Time 2026-05-05 13:58
Airport Hamburg Helmut Schmidt Airport (EDDH)
Time Latitude Longitude Altitude Speed Heading
2026-05-05 11:37 43.66424 7.21328 21 ft 0 kts 350°
2026-05-05 12:07 43.66414 7.21330 21 ft 4 kts 350°
2026-05-05 12:08 43.66386 7.21336 21 ft 4 kts 353°
2026-05-05 12:08 43.66360 7.21337 21 ft 4 kts 16°
2026-05-05 12:08 43.66345 7.21328 21 ft 4 kts 49°
2026-05-05 12:08 43.66339 7.21313 21 ft 0 kts 81°
2026-05-05 12:10 43.66339 7.21315 21 ft 2 kts 81°
2026-05-05 12:11 43.66327 7.21349 21 ft 7 kts 132°
2026-05-05 12:11 43.66271 7.21325 21 ft 11 kts 220°
2026-05-05 12:11 43.66209 7.21239 21 ft 14 kts 225°
2026-05-05 12:11 43.66140 7.21144 23 ft 14 kts 225°
2026-05-05 12:12 43.66066 7.21043 23 ft 16 kts 225°
2026-05-05 12:12 43.65985 7.20931 21 ft 17 kts 225°
2026-05-05 12:12 43.65894 7.20808 21 ft 19 kts 220°
2026-05-05 12:12 43.65792 7.20678 21 ft 21 kts 226°
2026-05-05 12:13 43.65710 7.20591 21 ft 12 kts 185°
2026-05-05 12:13 43.65642 7.20658 22 ft 13 kts 132°
2026-05-05 12:13 43.65548 7.20700 20 ft 15 kts 176°
2026-05-05 12:13 43.65438 7.20709 20 ft 17 kts 176°
2026-05-05 12:14 43.65328 7.20776 21 ft 18 kts 137°
2026-05-05 12:14 43.65255 7.20874 22 ft 0 kts 135°
2026-05-05 12:15 43.65245 7.20888 23 ft 6 kts 135°
2026-05-05 12:15 43.65198 7.20960 22 ft 11 kts 110°
2026-05-05 12:15 43.65224 7.21007 25 ft 0 kts 43°
2026-05-05 12:16 43.65236 7.21022 22 ft 17 kts 44°
2026-05-05 12:16 43.65506 7.21392 24 ft 90 kts 45°
2026-05-05 12:16 43.66095 7.22213 27 ft 148 kts 46°
2026-05-05 12:17 43.66737 7.23354 636 ft 143 kts 74°
2026-05-05 12:17 43.66706 7.24681 1245 ft 141 kts 110°
2026-05-05 12:17 43.66076 7.25736 1722 ft 145 kts 136°
2026-05-05 12:17 43.65341 7.26683 2231 ft 145 kts 134°
2026-05-05 12:18 43.64616 7.27682 2716 ft 149 kts 135°
2026-05-05 12:18 43.63872 7.28694 3194 ft 151 kts 136°
2026-05-05 12:18 43.63126 7.29721 3692 ft 155 kts 136°
2026-05-05 12:18 43.62310 7.30831 3982 ft 173 kts 137°
2026-05-05 12:19 43.61400 7.31999 4372 ft 185 kts 148°
2026-05-05 12:19 43.60117 7.32284 4638 ft 199 kts 197°
2026-05-05 12:19 43.58881 7.31313 4996 ft 214 kts 217°
2026-05-05 12:19 43.57614 7.30067 5417 ft 232 kts 215°
2026-05-05 12:20 43.56295 7.28834 6437 ft 225 kts 214°
2026-05-05 12:20 43.55161 7.27387 7328 ft 224 kts 238°
2026-05-05 12:20 43.54699 7.25349 8126 ft 228 kts 267°
2026-05-05 12:20 43.55082 7.23192 8889 ft 236 kts 298°
2026-05-05 12:21 43.56079 7.21350 9673 ft 241 kts 305°
2026-05-05 12:21 43.57122 7.19539 10458 ft 242 kts 304°
2026-05-05 12:21 43.58172 7.17714 11237 ft 244 kts 303°
2026-05-05 12:21 43.59227 7.15879 12018 ft 245 kts 302°
2026-05-05 12:22 43.60311 7.14056 12758 ft 249 kts 309°
2026-05-05 12:22 43.61718 7.12578 13415 ft 264 kts 325°
2026-05-05 12:22 43.63520 7.11603 13651 ft 292 kts 337°
2026-05-05 12:22 43.65532 7.10716 13864 ft 315 kts 337°
2026-05-05 12:23 43.67698 7.09767 14038 ft 338 kts 338°
2026-05-05 12:23 43.70007 7.08757 14274 ft 356 kts 338°
2026-05-05 12:23 43.72398 7.07717 14805 ft 363 kts 338°
2026-05-05 12:23 43.74826 7.06659 15413 ft 368 kts 338°
2026-05-05 12:24 43.77275 7.05582 16025 ft 371 kts 338°
2026-05-05 12:24 43.79750 7.04490 16599 ft 376 kts 338°
2026-05-05 12:24 43.82251 7.03381 17233 ft 379 kts 338°
2026-05-05 12:24 43.84810 7.02247 17749 ft 383 kts 338°
2026-05-05 12:25 43.87366 7.01107 18270 ft 387 kts 337°
2026-05-05 12:25 43.89937 6.99958 18867 ft 390 kts 337°
2026-05-05 12:25 43.92541 6.98798 19464 ft 393 kts 337°
2026-05-05 12:25 43.95140 6.97639 20073 ft 395 kts 337°
2026-05-05 12:26 43.97766 6.96468 20634 ft 398 kts 337°
2026-05-05 12:26 44.00419 6.95288 21166 ft 402 kts 336°
2026-05-05 12:26 44.03088 6.94099 21714 ft 404 kts 337°
2026-05-05 12:26 44.05815 6.92879 22190 ft 407 kts 337°
2026-05-05 12:27 44.08520 6.91664 22711 ft 410 kts 336°
2026-05-05 12:27 44.11242 6.90443 23210 ft 413 kts 336°
2026-05-05 12:27 44.14002 6.89282 23637 ft 418 kts 341°
2026-05-05 12:27 44.16907 6.88653 24081 ft 426 kts 349°
2026-05-05 12:28 44.19862 6.88226 24482 ft 428 kts 348°
2026-05-05 12:28 44.22832 6.87782 24903 ft 430 kts 348°
2026-05-05 12:28 44.25823 6.87327 25289 ft 434 kts 348°
2026-05-05 12:28 44.28830 6.86867 25649 ft 437 kts 348°
2026-05-05 12:29 44.31862 6.86402 26029 ft 440 kts 348°
2026-05-05 12:29 44.34912 6.85935 26420 ft 442 kts 348°
2026-05-05 12:29 44.37979 6.85469 26818 ft 445 kts 348°
2026-05-05 12:29 44.41067 6.85000 27164 ft 448 kts 348°
2026-05-05 12:30 44.44177 6.84528 27504 ft 451 kts 348°
2026-05-05 12:30 44.47306 6.84055 27869 ft 453 kts 348°
2026-05-05 12:30 44.50448 6.83575 28232 ft 456 kts 348°
2026-05-05 12:30 44.53611 6.83087 28602 ft 459 kts 348°
2026-05-05 12:31 44.56795 6.82601 28967 ft 461 kts 348°
2026-05-05 12:31 44.59997 6.82111 29303 ft 464 kts 348°
2026-05-05 12:31 44.63255 6.81610 29637 ft 466 kts 348°
2026-05-05 12:31 44.66489 6.81111 29957 ft 469 kts 348°
2026-05-05 12:32 44.69700 6.80615 30258 ft 471 kts 348°
2026-05-05 12:32 44.73011 6.80107 30552 ft 474 kts 348°
2026-05-05 12:32 44.76294 6.79607 30823 ft 476 kts 348°
2026-05-05 12:32 44.79593 6.79106 31103 ft 478 kts 348°
2026-05-05 12:33 44.82923 6.78686 31351 ft 482 kts 351°
2026-05-05 12:33 44.85152 6.78483 31512 ft 484 kts 352°
2026-05-05 12:33 44.88519 6.78274 31863 ft 485 kts 353°
2026-05-05 12:33 44.91887 6.78128 32245 ft 484 kts 353°
2026-05-05 12:34 44.95250 6.77994 32576 ft 484 kts 353°
2026-05-05 12:34 44.98616 6.77838 32925 ft 483 kts 353°
2026-05-05 12:34 45.01976 6.77648 33259 ft 483 kts 352°
2026-05-05 12:34 45.05331 6.77427 33575 ft 483 kts 352°
2026-05-05 12:35 45.08684 6.77189 33911 ft 482 kts 352°
2026-05-05 12:35 45.12034 6.76950 34232 ft 483 kts 352°
2026-05-05 12:35 45.15389 6.76715 34615 ft 482 kts 352°
2026-05-05 12:35 45.18738 6.76487 34972 ft 481 kts 352°
2026-05-05 12:36 45.22078 6.76265 35319 ft 480 kts 352°
2026-05-05 12:36 45.25413 6.76044 35639 ft 480 kts 352°
2026-05-05 12:36 45.28746 6.75823 35939 ft 479 kts 352°
2026-05-05 12:36 45.32120 6.75598 36222 ft 478 kts 352°
2026-05-05 12:37 45.35440 6.75376 36484 ft 478 kts 352°
2026-05-05 12:37 45.38761 6.75153 36734 ft 478 kts 352°
2026-05-05 12:37 45.42082 6.74929 37058 ft 476 kts 353°
2026-05-05 12:37 45.45382 6.74709 37420 ft 473 kts 353°
2026-05-05 12:38 45.48661 6.74493 37785 ft 470 kts 353°
2026-05-05 12:38 45.51926 6.74276 37955 ft 470 kts 353°
2026-05-05 12:38 45.58449 6.73825 37982 ft 468 kts 352°
2026-05-05 12:39 45.64968 6.73368 37978 ft 469 kts 353°
2026-05-05 12:39 45.71482 6.72920 37978 ft 469 kts 353°
2026-05-05 12:40 45.77994 6.72467 37965 ft 469 kts 353°
2026-05-05 12:40 45.84512 6.72023 37947 ft 469 kts 353°
2026-05-05 12:41 45.91035 6.71583 37941 ft 469 kts 353°
2026-05-05 12:41 45.97559 6.71142 37942 ft 470 kts 353°
2026-05-05 12:42 46.04092 6.70701 37935 ft 469 kts 353°
2026-05-05 12:42 46.10611 6.70218 37937 ft 468 kts 349°
2026-05-05 12:43 46.16859 6.68067 37940 ft 459 kts 336°
2026-05-05 12:43 46.22900 6.65113 37927 ft 458 kts 336°
2026-05-05 12:44 46.28993 6.62158 37919 ft 459 kts 336°
2026-05-05 12:44 46.35053 6.59217 37914 ft 459 kts 336°
2026-05-05 12:45 46.41098 6.56266 37911 ft 459 kts 336°
2026-05-05 12:45 46.47151 6.53297 37915 ft 460 kts 336°
2026-05-05 12:46 46.53215 6.50309 37919 ft 460 kts 336°
2026-05-05 12:46 46.59275 6.47325 37921 ft 460 kts 337°
2026-05-05 12:47 46.65341 6.44339 37923 ft 460 kts 336°
2026-05-05 12:47 46.71410 6.41341 37918 ft 460 kts 337°
2026-05-05 12:48 46.77517 6.38316 37917 ft 460 kts 337°
2026-05-05 12:48 46.83577 6.35302 37917 ft 460 kts 337°
2026-05-05 12:49 46.89636 6.32280 37911 ft 460 kts 337°
2026-05-05 12:49 46.95691 6.29250 37913 ft 460 kts 337°
2026-05-05 12:50 47.01749 6.26223 37910 ft 460 kts 337°
2026-05-05 12:50 47.07720 6.22930 37908 ft 456 kts 329°
2026-05-05 12:51 47.13408 6.18807 37899 ft 456 kts 329°
2026-05-05 12:51 47.19099 6.14704 37893 ft 456 kts 330°
2026-05-05 12:52 47.24806 6.10597 37888 ft 457 kts 330°
2026-05-05 12:52 47.30630 6.06683 37879 ft 460 kts 339°
2026-05-05 12:53 47.33750 6.05589 37872 ft 463 kts 350°
2026-05-05 12:53 47.36971 6.05292 37867 ft 466 kts
2026-05-05 12:53 47.40196 6.05807 37865 ft 467 kts 11°
2026-05-05 12:53 47.43333 6.07059 37867 ft 468 kts 17°
2026-05-05 12:54 47.52692 6.11280 37863 ft 469 kts 16°
2026-05-05 12:55 47.58940 6.14099 37864 ft 469 kts 17°
2026-05-05 12:55 47.65185 6.16929 37872 ft 470 kts 17°
2026-05-05 12:56 47.71434 6.19775 37881 ft 470 kts 17°
2026-05-05 12:56 47.77679 6.22636 37878 ft 469 kts 17°
2026-05-05 12:57 47.83914 6.25491 37875 ft 469 kts 17°
2026-05-05 12:57 47.90151 6.28344 37870 ft 469 kts 17°
2026-05-05 12:58 47.96380 6.31200 37877 ft 468 kts 17°
2026-05-05 12:58 48.02610 6.34070 37871 ft 469 kts 17°
2026-05-05 12:59 48.08845 6.36953 37864 ft 469 kts 17°
2026-05-05 12:59 48.15113 6.39861 37870 ft 469 kts 17°
2026-05-05 13:00 48.24458 6.44206 37869 ft 469 kts 17°
2026-05-05 13:01 48.36921 6.50016 37872 ft 469 kts 17°
2026-05-05 13:01 48.43153 6.52933 37866 ft 469 kts 17°
2026-05-05 13:02 48.49382 6.55859 37877 ft 469 kts 17°
2026-05-05 13:02 48.55608 6.58793 37869 ft 469 kts 17°
2026-05-05 13:03 48.61831 6.61736 37870 ft 469 kts 17°
2026-05-05 13:03 48.68065 6.64677 37865 ft 469 kts 17°
2026-05-05 13:04 48.74295 6.67630 37868 ft 469 kts 17°
2026-05-05 13:04 48.80526 6.70594 37876 ft 469 kts 17°
2026-05-05 13:05 48.86755 6.73559 37871 ft 469 kts 17°
2026-05-05 13:05 48.91970 6.76050 37870 ft 469 kts 17°
2026-05-05 13:06 48.98194 6.79037 37864 ft 469 kts 17°
2026-05-05 13:06 49.04418 6.82030 37862 ft 469 kts 17°
2026-05-05 13:07 49.10650 6.85039 37861 ft 470 kts 17°
2026-05-05 13:07 49.16879 6.88054 37859 ft 470 kts 17°
2026-05-05 13:08 49.23111 6.91070 37856 ft 469 kts 17°
2026-05-05 13:08 49.29346 6.94058 37857 ft 469 kts 13°
2026-05-05 13:09 49.35759 6.95895 37857 ft 469 kts
2026-05-05 13:09 49.42188 6.97590 37854 ft 469 kts
2026-05-05 13:10 49.48668 6.99311 37854 ft 469 kts
2026-05-05 13:10 49.55101 7.01036 37853 ft 470 kts
2026-05-05 13:11 49.61540 7.02763 37855 ft 470 kts
2026-05-05 13:11 49.67980 7.04491 37856 ft 470 kts
2026-05-05 13:12 49.74417 7.06220 37858 ft 470 kts
2026-05-05 13:12 49.80850 7.07956 37856 ft 470 kts
2026-05-05 13:13 49.87295 7.09703 37854 ft 470 kts
2026-05-05 13:13 49.93733 7.11459 37854 ft 470 kts
2026-05-05 13:14 49.99994 7.13173 37856 ft 470 kts
2026-05-05 13:14 50.06437 7.14925 37854 ft 470 kts
2026-05-05 13:15 50.12887 7.16691 37848 ft 470 kts
2026-05-05 13:15 50.19336 7.18457 37850 ft 470 kts
2026-05-05 13:16 50.25776 7.20227 37844 ft 470 kts
2026-05-05 13:16 50.32220 7.22005 37844 ft 470 kts
2026-05-05 13:17 50.38654 7.23790 37845 ft 470 kts
2026-05-05 13:17 50.45130 7.25592 37850 ft 470 kts
2026-05-05 13:18 50.51580 7.27382 37853 ft 470 kts
2026-05-05 13:18 50.58020 7.29175 37857 ft 470 kts
2026-05-05 13:19 50.64446 7.30984 37864 ft 469 kts
2026-05-05 13:19 50.70875 7.32796 37866 ft 469 kts
2026-05-05 13:20 50.77155 7.35603 37860 ft 471 kts 22°
2026-05-05 13:20 50.83174 7.39724 37864 ft 471 kts 22°
2026-05-05 13:21 50.89196 7.43850 37868 ft 471 kts 22°
2026-05-05 13:21 50.95249 7.47993 37865 ft 471 kts 22°
2026-05-05 13:22 51.01270 7.52142 37867 ft 471 kts 22°
2026-05-05 13:22 51.07282 7.56304 37874 ft 471 kts 22°
2026-05-05 13:23 51.13291 7.60459 37876 ft 471 kts 22°
2026-05-05 13:23 51.19294 7.64638 37879 ft 471 kts 22°
2026-05-05 13:24 51.25290 7.68826 37881 ft 470 kts 22°
2026-05-05 13:24 51.31319 7.73042 37887 ft 470 kts 22°
2026-05-05 13:25 51.37308 7.77236 37888 ft 470 kts 21°
2026-05-05 13:25 51.43292 7.81445 37888 ft 469 kts 21°
2026-05-05 13:26 51.49271 7.85658 37891 ft 469 kts 21°
2026-05-05 13:26 51.55248 7.89878 37893 ft 469 kts 21°
2026-05-05 13:27 51.61220 7.94112 37892 ft 469 kts 21°
2026-05-05 13:27 51.67228 7.98381 37890 ft 469 kts 21°
2026-05-05 13:28 51.73193 8.02642 37893 ft 469 kts 21°
2026-05-05 13:28 51.79153 8.06909 37899 ft 468 kts 21°
2026-05-05 13:29 51.85108 8.11175 37896 ft 468 kts 21°
2026-05-05 13:29 51.91060 8.15442 37898 ft 468 kts 21°
2026-05-05 13:30 51.97010 8.19732 37893 ft 468 kts 21°
2026-05-05 13:30 52.02992 8.24062 37895 ft 468 kts 21°
2026-05-05 13:31 52.08933 8.28380 37898 ft 468 kts 21°
2026-05-05 13:31 52.14878 8.32709 37726 ft 468 kts 21°
2026-05-05 13:32 52.17848 8.34880 37477 ft 468 kts 21°
2026-05-05 13:32 52.20814 8.37051 37224 ft 468 kts 21°
2026-05-05 13:32 52.23785 8.39226 36978 ft 468 kts 21°
2026-05-05 13:32 52.26761 8.41404 36730 ft 468 kts 21°
2026-05-05 13:33 52.28770 8.42874 36566 ft 468 kts 21°
2026-05-05 13:33 52.31740 8.45048 36323 ft 469 kts 21°
2026-05-05 13:33 52.34723 8.47235 36069 ft 471 kts 21°
2026-05-05 13:33 52.37715 8.49435 35815 ft 473 kts 21°
2026-05-05 13:34 52.40735 8.51660 35562 ft 477 kts 21°
2026-05-05 13:34 52.43763 8.53897 35014 ft 480 kts 21°
2026-05-05 13:34 52.46863 8.56189 34383 ft 481 kts 20°
2026-05-05 13:34 52.49865 8.58412 33903 ft 479 kts 20°
2026-05-05 13:35 52.52935 8.60696 33348 ft 477 kts 21°
2026-05-05 13:35 52.55913 8.62921 32828 ft 475 kts 21°
2026-05-05 13:35 52.58950 8.65193 32280 ft 473 kts 21°
2026-05-05 13:35 52.61937 8.67427 31742 ft 470 kts 21°
2026-05-05 13:36 52.64902 8.69640 31212 ft 467 kts 21°
2026-05-05 13:36 52.67855 8.71847 30680 ft 464 kts 21°
2026-05-05 13:36 52.70828 8.74071 30150 ft 461 kts 21°
2026-05-05 13:36 52.73737 8.76247 29638 ft 457 kts 20°
2026-05-05 13:37 52.76702 8.77941 29174 ft 447 kts
2026-05-05 13:37 52.79739 8.78747 28712 ft 437 kts 359°
2026-05-05 13:37 52.82749 8.78810 28266 ft 429 kts 355°
2026-05-05 13:37 52.85760 8.78780 27819 ft 425 kts 355°
2026-05-05 13:38 52.88700 8.78762 27404 ft 420 kts 355°
2026-05-05 13:38 52.91601 8.78746 26988 ft 415 kts 355°
2026-05-05 13:38 52.94475 8.78729 26575 ft 411 kts 355°
2026-05-05 13:38 52.97328 8.78932 26179 ft 411 kts
2026-05-05 13:39 53.00150 8.79573 25765 ft 407 kts
2026-05-05 13:39 53.02986 8.80228 25347 ft 405 kts
2026-05-05 13:39 53.05764 8.80866 24941 ft 402 kts
2026-05-05 13:39 53.08527 8.81494 24521 ft 400 kts
2026-05-05 13:40 53.11275 8.82113 24101 ft 397 kts
2026-05-05 13:40 53.14000 8.82726 23676 ft 394 kts
2026-05-05 13:40 53.16706 8.83340 23241 ft 391 kts
2026-05-05 13:40 53.19391 8.83954 22813 ft 388 kts
2026-05-05 13:41 53.22060 8.84568 22369 ft 386 kts
2026-05-05 13:41 53.24707 8.85176 21932 ft 383 kts
2026-05-05 13:41 53.27337 8.85780 21490 ft 380 kts
2026-05-05 13:41 53.29941 8.86378 21053 ft 377 kts
2026-05-05 13:42 53.32527 8.86970 20614 ft 373 kts
2026-05-05 13:42 53.35102 8.87857 20170 ft 374 kts 14°
2026-05-05 13:42 53.37525 8.89446 19734 ft 373 kts 20°
2026-05-05 13:42 53.39901 8.91140 19297 ft 371 kts 20°
2026-05-05 13:43 53.42265 8.92822 18861 ft 368 kts 20°
2026-05-05 13:43 53.44613 8.94493 18423 ft 365 kts 20°
2026-05-05 13:43 53.46945 8.96150 17987 ft 362 kts 20°
2026-05-05 13:43 53.49260 8.97797 17555 ft 360 kts 20°
2026-05-05 13:44 53.51552 8.99427 17124 ft 357 kts 20°
2026-05-05 13:44 53.53806 9.01154 16710 ft 355 kts 27°
2026-05-05 13:44 53.55865 9.03449 16281 ft 355 kts 33°
2026-05-05 13:44 53.57868 9.05854 15850 ft 353 kts 33°
2026-05-05 13:45 53.59862 9.08244 15414 ft 351 kts 33°
2026-05-05 13:45 53.61844 9.10615 14983 ft 349 kts 33°
2026-05-05 13:45 53.63819 9.12975 14558 ft 346 kts 33°
2026-05-05 13:45 53.65775 9.15317 14126 ft 344 kts 33°
2026-05-05 13:46 53.67718 9.17648 13699 ft 342 kts 33°
2026-05-05 13:46 53.69649 9.19966 13284 ft 339 kts 33°
2026-05-05 13:46 53.71568 9.22271 12871 ft 337 kts 33°
2026-05-05 13:46 53.73470 9.24565 12461 ft 335 kts 33°
2026-05-05 13:47 53.75363 9.26853 12039 ft 333 kts 34°
2026-05-05 13:47 53.77017 9.29569 11633 ft 333 kts 55°
2026-05-05 13:47 53.77933 9.33186 11225 ft 331 kts 80°
2026-05-05 13:47 53.77924 9.37018 10834 ft 325 kts 104°
2026-05-05 13:48 53.77032 9.40461 10397 ft 320 kts 128°
2026-05-05 13:48 53.75620 9.43350 9900 ft 319 kts 134°
2026-05-05 13:48 53.74140 9.46150 9403 ft 320 kts 134°
2026-05-05 13:48 53.72646 9.48905 8882 ft 314 kts 136°
2026-05-05 13:49 53.70898 9.50924 8384 ft 300 kts 159°
2026-05-05 13:49 53.68958 9.52089 7885 ft 292 kts 164°
2026-05-05 13:49 53.67031 9.53124 7221 ft 291 kts 164°
2026-05-05 13:49 53.65092 9.54141 6506 ft 292 kts 164°
2026-05-05 13:50 53.63155 9.55134 5822 ft 292 kts 164°
2026-05-05 13:50 53.61226 9.56102 5331 ft 285 kts 164°
2026-05-05 13:50 53.59351 9.57021 4833 ft 278 kts 164°
2026-05-05 13:50 53.57500 9.57915 4326 ft 273 kts 164°
2026-05-05 13:51 53.55699 9.58769 3984 ft 263 kts 164°
2026-05-05 13:51 53.53970 9.59567 3732 ft 251 kts 164°
2026-05-05 13:51 53.52348 9.60424 3474 ft 237 kts 150°
2026-05-05 13:51 53.51139 9.62168 3239 ft 220 kts 128°
2026-05-05 13:52 53.50284 9.64186 3064 ft 201 kts 109°
2026-05-05 13:52 53.50079 9.66400 3080 ft 183 kts 88°
2026-05-05 13:52 53.50109 9.68437 3036 ft 177 kts 85°
2026-05-05 13:52 53.50163 9.70483 3028 ft 174 kts 84°
2026-05-05 13:53 53.50279 9.72497 3024 ft 172 kts 72°
2026-05-05 13:53 53.50823 9.74250 3030 ft 170 kts 49°
2026-05-05 13:53 53.51584 9.75771 3029 ft 170 kts 48°
2026-05-05 13:53 53.52342 9.77289 2920 ft 170 kts 48°
2026-05-05 13:54 53.53110 9.78828 2733 ft 169 kts 49°
2026-05-05 13:54 53.53864 9.80340 2515 ft 169 kts 49°
2026-05-05 13:54 53.54615 9.81848 2302 ft 168 kts 49°
2026-05-05 13:54 53.55365 9.83355 2076 ft 167 kts 49°
2026-05-05 13:55 53.56126 9.84885 1859 ft 174 kts 50°
2026-05-05 13:55 53.56946 9.86532 1602 ft 183 kts 50°
2026-05-05 13:55 53.57734 9.88118 1357 ft 170 kts 51°
2026-05-05 13:55 53.58458 9.89578 1153 ft 154 kts 51°
2026-05-05 13:56 53.59098 9.90867 951 ft 136 kts 51°
2026-05-05 13:56 53.59499 9.91676 829 ft 130 kts 51°
2026-05-05 13:56 53.60071 9.92830 662 ft 127 kts 51°
2026-05-05 13:56 53.60635 9.93960 503 ft 125 kts 51°
2026-05-05 13:57 53.61200 9.95102 332 ft 127 kts 52°
2026-05-05 13:57 53.61775 9.96269 158 ft 128 kts 51°
2026-05-05 13:57 53.62354 9.97440 41 ft 114 kts 50°
2026-05-05 13:57 53.62753 9.98245 43 ft 67 kts 50°
2026-05-05 13:58 53.62991 9.98725 45 ft 43 kts 50°
2026-05-05 13:58 53.63092 9.99067 46 ft 25 kts 88°
2026-05-05 13:58 53.63085 9.99211 45 ft 10 kts 94°
2026-05-05 13:58 53.63084 9.99343 44 ft 10 kts 78°
2026-05-05 13:59 53.63088 9.99363 47 ft 0 kts 70°
2026-05-05 14:02 53.63088 9.99364 47 ft 1 kts 70°
2026-05-05 14:02 53.63102 9.99410 46 ft 10 kts 58°
2026-05-05 14:02 53.63161 9.99548 46 ft 16 kts 51°
2026-05-05 14:03 53.63219 9.99660 48 ft 13 kts 47°
2026-05-05 14:03 53.63288 9.99777 48 ft 16 kts 47°
2026-05-05 14:03 53.63366 9.99925 47 ft 15 kts 50°
2026-05-05 14:03 53.63402 10.00009 48 ft 9 kts 54°
2026-05-05 14:04 53.63426 10.00120 48 ft 11 kts 109°
2026-05-05 14:04 53.63350 10.00161 48 ft 10 kts 176°
2026-05-05 14:04 53.63311 10.00209 48 ft 7 kts 100°